China Lake, CA

2:47 PM PDT on April 24, 2017 (GMT -0700)
China Lake NAWS

Weather History for KNID - November, 2013

Change the Weather History Date:

Monday, November 4, 2013

  Actual Average Record
Temperature  
Mean Temperature 56 °F -  
Max Temperature 66 °F 67 °F 90 °F (2010)
Min Temperature 46 °F 42 °F 28 °F (2003)
Degree Days  
Heating Degree Days 9    
Growing Degree Days 6 (Base 50)    
Moisture  
Dew Point 23 °F    
Average Humidity 27    
Maximum Humidity 44    
Minimum Humidity 17    
Precipitation  
Precipitation 0.00 in - - ()
Sea Level Pressure  
Sea Level Pressure 29.86 in    
Wind  
Wind Speed 6 mph (WNW)    
Max Wind Speed 16 mph    
Max Gust Speed 22 mph    
Visibility 10 miles    
Events      
Averages and records for this station are not official NWS values.
T = Trace of Precipitation, MM = Missing Value Source: NWS Daily Summary

Daily Weather History Graph

Daily Weather History Graph

Search for Another Location

Airport or City:

Trip Planner

Search our weather history database for the weather conditions in past years. The results will help you decide how hot, cold, wet, or windy it might be!

Date:

Astronomy

Nov. 04, 2013 Rise Set
Actual Time 6:16 AM PST 4:52 PM PST
Civil Twilight 5:49 AM PST 5:18 PM PST
Nautical Twilight 5:19 AM PST 5:49 PM PST
Astronomical Twilight 4:49 AM PST 6:18 PM PST
Moon 7:29 AM PST (11/4) 6:03 PM PST (11/4)
Length of Visible Light 11h 29m
Length of Day
10h 36m
New Moon, 2% of the Moon is Illuminated
Nov 4
New Moon
Nov 9
First Quarter
Nov 17
Full
Nov 25
Last Quarter
Dec 2
New

Hourly Weather History & Observations

Time (PST) Temp. Dew Point Humidity Pressure Visibility Wind Dir Wind Speed Gust Speed Precip Events Conditions
4:56 AM 46.0 °F 24.1 °F 42% 29.77 in 10.0 mi Calm Calm - N/A   Mostly Cloudy
5:56 AM 46.9 °F 26.1 °F 44% 29.77 in 10.0 mi South 8.1 mph - N/A   Mostly Cloudy
6:56 AM 48.0 °F 27.0 °F 44% 29.80 in 10.0 mi South 6.9 mph - N/A   Mostly Cloudy
7:56 AM 55.0 °F 30.9 °F 40% 29.83 in 10.0 mi SW 4.6 mph - N/A   Mostly Cloudy
8:56 AM 57.0 °F 28.9 °F 34% 29.84 in 10.0 mi West 3.5 mph - N/A   Mostly Cloudy
9:56 AM 62.1 °F 28.9 °F 29% 29.83 in 10.0 mi North 4.6 mph - N/A   Partly Cloudy
10:56 AM 63.0 °F 26.1 °F 25% 29.82 in 10.0 mi SE 3.5 mph - N/A   Partly Cloudy
11:56 AM 66.0 °F 25.0 °F 21% 29.81 in 10.0 mi ESE 5.8 mph - N/A   Partly Cloudy
12:56 PM 66.0 °F 27.0 °F 23% 29.80 in 10.0 mi ENE 9.2 mph - N/A   Partly Cloudy
1:56 PM 66.9 °F 23.0 °F 19% 29.79 in 10.0 mi SE 6.9 mph - N/A   Partly Cloudy
2:56 PM 66.9 °F 21.0 °F 17% 29.81 in 10.0 mi SE 6.9 mph - N/A   Partly Cloudy
3:56 PM 66.0 °F 21.0 °F 18% 29.82 in 10.0 mi Calm Calm - N/A   Partly Cloudy
4:56 PM 62.1 °F 21.9 °F 21% 29.85 in 10.0 mi NNW 12.7 mph - N/A   Partly Cloudy
5:56 PM 60.1 °F 21.0 °F 22% 29.87 in 10.0 mi NNW 15.0 mph - N/A   Scattered Clouds
6:56 PM 55.0 °F 19.9 °F 25% 29.90 in 10.0 mi NW 8.1 mph - N/A   Clear
7:56 PM 55.9 °F 19.9 °F 25% 29.92 in 10.0 mi WNW 9.2 mph - N/A   Clear
8:56 PM 53.1 °F 18.0 °F 25% 29.95 in 10.0 mi WNW 10.4 mph - N/A   Clear
9:56 PM 52.0 °F 18.0 °F 26% 29.97 in 10.0 mi WNW 11.5 mph - N/A   Clear
10:56 PM 50.0 °F 17.1 °F 27% 29.99 in 10.0 mi WNW 9.2 mph - N/A   Clear
11:56 PM 54.0 °F 17.1 °F 23% 30.01 in 10.0 mi NNW 16.1 mph 21.9 mph N/A   Clear